TimeCST,TemperatureF,Dew PointF,Humidity,Sea Level PressureIn,VisibilityMPH,Wind Direction,Wind SpeedMPH,Gust SpeedMPH,PrecipitationIn,Events,Conditions,WindDirDegrees,DateUTC
12:53 AM,55.9,52.0,87,29.97,10.0,SSE,3.5,-,N/A,,Clear,150,2012-12-19 06:53:00
1:53 AM,57.0,53.1,87,29.97,10.0,Variable,3.5,-,N/A,,Clear,0,2012-12-19 07:53:00
2:53 AM,57.9,54.0,87,29.96,10.0,SSE,3.5,-,N/A,,Clear,150,2012-12-19 08:53:00
3:53 AM,55.9,53.1,90,29.95,10.0,Calm,Calm,-,0.01,,Clear,0,2012-12-19 09:53:00
4:53 AM,59.0,55.0,87,29.94,10.0,SSE,6.9,-,N/A,,Clear,160,2012-12-19 10:53:00
5:53 AM,60.1,55.0,83,29.95,10.0,SSE,6.9,-,N/A,,Clear,160,2012-12-19 11:53:00
6:53 AM,60.1,55.9,86,29.95,10.0,SSE,5.8,-,N/A,,Clear,160,2012-12-19 12:53:00
7:53 AM,62.1,57.0,84,29.96,10.0,SSE,6.9,-,N/A,,Clear,160,2012-12-19 13:53:00
8:53 AM,66.0,59.0,78,29.98,10.0,South,9.2,-,N/A,,Clear,170,2012-12-19 14:53:00
9:53 AM,71.1,61.0,70,29.98,10.0,South,10.4,17.3,N/A,,Clear,170,2012-12-19 15:53:00
10:53 AM,73.0,61.0,66,29.97,10.0,South,12.7,-,N/A,,Clear,170,2012-12-19 16:53:00
11:53 AM,75.0,62.1,64,29.93,10.0,South,13.8,-,N/A,,Clear,180,2012-12-19 17:53:00
12:53 PM,75.9,63.0,64,29.89,10.0,South,12.7,23.0,N/A,,Partly Cloudy,170,2012-12-19 18:53:00
1:53 PM,75.9,64.0,67,29.89,10.0,South,13.8,21.9,N/A,,Mostly Cloudy,180,2012-12-19 19:53:00
2:05 PM,75.2,64.4,69,29.88,10.0,South,11.5,24.2,N/A,,Mostly Cloudy,180,2012-12-19 20:05:00
2:53 PM,75.0,64.9,71,29.87,10.0,South,12.7,23.0,N/A,,Scattered Clouds,170,2012-12-19 20:53:00
3:23 PM,73.4,64.4,73,29.86,10.0,South,17.3,27.6,N/A,,Mostly Cloudy,170,2012-12-19 21:23:00
3:31 PM,73.4,64.4,73,29.86,10.0,South,13.8,26.5,N/A,,Mostly Cloudy,170,2012-12-19 21:31:00
3:53 PM,73.9,64.9,73,29.85,10.0,South,13.8,20.7,N/A,,Mostly Cloudy,170,2012-12-19 21:53:00
4:34 PM,73.4,66.2,78,29.85,10.0,South,10.4,24.2,N/A,,Mostly Cloudy,170,2012-12-19 22:34:00
4:53 PM,73.0,66.0,79,29.85,10.0,SSE,11.5,20.7,N/A,,Overcast,160,2012-12-19 22:53:00
5:49 PM,71.6,66.2,83,29.85,10.0,SSE,5.8,-,N/A,,Overcast,150,2012-12-19 23:49:00
5:53 PM,71.1,66.0,84,29.85,10.0,SSE,9.2,-,N/A,,Overcast,160,2012-12-19 23:53:00
6:18 PM,71.6,66.2,83,29.85,10.0,SSE,6.9,16.1,N/A,,Overcast,160,2012-12-20 00:18:00
6:53 PM,71.1,66.0,84,29.84,10.0,SSE,10.4,18.4,N/A,,Overcast,160,2012-12-20 00:53:00
7:53 PM,72.0,66.9,84,29.82,10.0,SSE,11.5,20.7,N/A,,Overcast,160,2012-12-20 01:53:00
8:33 PM,71.6,68.0,88,29.83,10.0,South,16.1,24.2,N/A,,Overcast,170,2012-12-20 02:33:00
8:53 PM,73.0,68.0,84,29.83,10.0,South,11.5,23.0,N/A,,Overcast,170,2012-12-20 02:53:00
9:53 PM,73.0,69.1,87,29.84,10.0,South,12.7,-,N/A,,Overcast,180,2012-12-20 03:53:00
10:53 PM,72.0,69.1,91,29.82,9.0,South,11.5,23.0,N/A,,Overcast,180,2012-12-20 04:53:00
11:53 PM,73.0,70.0,90,29.79,8.0,South,16.1,24.2,N/A,,Overcast,190,2012-12-20 05:53:00